DW9918 Weather Reports


Display with metric or nautical units.
time (UTC)temp
F
wind
direction
speed
MPH
gust
MPH
rain 1hr
in
rain 24hr
in
rain mn
in
humidity
%
barometer
mb
20240620231503 75 35 0.0 0.0 0.00 0.00 0.00 78 1017.9
20240620231141 76 37 0.0 1.0 0.00 0.00 0.00 78 1017.9
20240620230134 75 35 0.0 2.0 0.00 0.00 0.00 78 1018.1
20240620230003 75 35 0.0 2.0 0.00 0.00 0.00 78 1018.1
20240620225134 76 265 0.0 2.0 0.00 0.00 0.00 77 1018.2
20240620224512 75 312 1.0 2.0 0.00 0.00 0.00 78 1018.2
20240620224131 76 293 1.0 1.0 0.00 0.00 0.00 78 1018.2
20240620223130 76 161 1.0 2.0 0.00 0.00 0.00 76 1018.1
20240620223009 75 161 1.0 2.0 0.00 0.00 0.00 76 1018.0
20240620222155 76 161 0.0 2.0 0.00 0.00 0.00 77 1018.0
20240620221503 75 203 0.0 2.0 0.00 0.00 0.00 77 1017.9
20240620221128 75 114 0.0 1.0 0.00 0.00 0.00 79 1018.0
20240620220130 75 110 0.0 0.0 0.00 0.00 0.00 79 1018.3
20240620220004 75 110 0.0 0.0 0.00 0.00 0.00 78 1018.2
20240620215145 75 109 0.0 1.0 0.00 0.00 0.00 79 1018.3
20240620214503 75 109 0.0 1.0 0.00 0.00 0.00 78 1018.1
20240620214150 76 160 0.0 1.0 0.00 0.00 0.00 79 1018.2
20240620213130 76 124 0.0 0.0 0.00 0.00 0.00 79 1018.3
20240620213003 76 124 0.0 0.0 0.00 0.00 0.00 78 1018.2
20240620212133 77 122 0.0 0.0 0.00 0.00 0.00 78 1018.3
20240620211510 76 122 0.0 0.0 0.00 0.00 0.00 78 1018.2
20240620211150 77 143 0.0 0.0 0.00 0.00 0.00 78 1018.2
20240620210126 76 170 0.0 0.0 0.00 0.00 0.00 79 1018.4
20240620210017 76 170 0.0 0.0 0.00 0.00 0.00 79 1018.4
20240620205134 76 97 0.0 0.0 0.00 0.00 0.00 80 1018.4
20240620204512 76 82 0.0 2.0 0.00 0.00 0.00 80 1018.4
20240620204141 77 82 0.0 2.0 0.00 0.00 0.00 82 1018.3
20240620203152 76 85 0.0 0.0 0.00 0.00 0.00 83 1018.4
20240620203008 76 85 0.0 0.0 0.00 0.00 0.00 83 1018.4
20240620202138 77 90 0.0 0.0 0.00 0.00 0.00 83 1018.4
20240620201516 76 90 0.0 2.0 0.00 0.00 0.00 82 1018.5
20240620201128 77 90 0.0 3.0 0.00 0.00 0.00 82 1018.4
20240620200138 77 79 2.0 3.0 0.00 0.00 0.00 80 1018.3
20240620200008 77 79 2.0 3.0 0.00 0.00 0.00 80 1018.3
20240620195154 77 150 0.0 0.0 0.00 0.00 0.00 81 1018.3
20240620194511 77 89 0.0 0.0 0.00 0.00 0.00 81 1018.4
20240620194203 78 89 0.0 0.0 0.00 0.00 0.00 81 1018.4
20240620193227 78 79 0.0 3.0 0.00 0.00 0.00 80 1018.4
20240620193024 77 90 0.0 3.0 0.00 0.00 0.00 80 1018.3
20240620192126 78 83 1.0 4.0 0.00 0.00 0.00 81 1018.4
20240620191518 78 74 2.0 4.0 0.00 0.00 0.00 79 1018.3
20240620191126 78 87 1.0 4.0 0.00 0.00 0.00 80 1018.2
20240620190133 78 88 2.0 4.0 0.00 0.00 0.00 80 1018.1
20240620190008 78 96 3.0 4.0 0.00 0.00 0.00 79 1018.0
20240620184506 79 86 2.0 4.0 0.00 0.00 0.00 78 1018.1
20240620183017 80 87 3.0 4.0 0.00 0.00 0.00 75 1018.1
20240620181516 81 74 2.0 2.0 0.00 0.00 0.00 73 1018.2
20240620180013 81 48 1.0 2.0 0.00 0.00 0.00 72 1018.3
20240620174516 82 84 3.0 6.0 0.00 0.00 0.00 69 1018.2
20240620173011 85 4 0.0 3.0 0.00 0.00 0.00 65 1018.3
20240620171506 85 75 0.0 2.0 0.00 0.00 0.00 65 1018.3
20240620170014 85 69 0.0 2.0 0.00 0.00 0.00 65 1018.2
20240620164512 84 82 0.0 3.0 0.00 0.00 0.00 68 1018.3
20240620163012 84 79 3.0 6.0 0.00 0.00 0.00 67 1018.0
20240620161512 85 41 1.0 2.0 0.00 0.00 0.00 62 1018.0
20240620160008 85 311 0.0 3.0 0.00 0.00 0.00 62 1018.3
20240620154515 85 33 1.0 5.0 0.00 0.00 0.00 64 1018.0
20240620153016 85 19 3.0 4.0 0.00 0.00 0.00 64 1018.1
20240620151504 85 32 2.0 5.0 0.00 0.00 0.00 62 1018.6
20240620150004 85 352 3.0 9.0 0.00 0.00 0.00 63 1018.6
20240620144513 85 326 4.0 9.0 0.00 0.00 0.00 63 1018.8
20240620143012 85 328 5.0 8.0 0.00 0.00 0.00 64 1018.9
20240620141515 85 351 3.0 8.0 0.00 0.00 0.00 63 1018.9
20240620140009 86 319 7.0 10.0 0.00 0.00 0.00 61 1019.1
20240620134507 86 17 4.0 8.0 0.00 0.00 0.00 62 1019.2
20240620133014 86 20 3.0 9.0 0.00 0.00 0.00 63 1019.2
20240620131512 87 11 4.0 6.0 0.00 0.00 0.00 60 1019.3
20240620130017 86 70 2.0 7.0 0.00 0.00 0.00 63 1019.3
20240620124521 86 23 3.0 5.0 0.00 0.00 0.00 63 1019.1
20240620123009 87 6 0.0 5.0 0.00 0.00 0.00 58 1019.1
20240620121502 86 323 2.0 3.0 0.00 0.00 0.00 58 1019.1
20240620120007 86 296 1.0 3.0 0.00 0.00 0.00 61 1019.1
20240620114506 85 312 2.0 3.0 0.00 0.00 0.00 60 1019.1
20240620113005 85 315 1.0 2.0 0.00 0.00 0.00 59 1019.0
20240620111503 85 299 0.0 3.0 0.00 0.00 0.00 61 1018.9
20240620110003 84 270 2.0 5.0 0.00 0.00 0.00 61 1019.3
20240620104506 84 258 1.0 3.0 0.00 0.00 0.00 59 1019.0
20240620103003 84 257 1.0 5.0 0.00 0.00 0.00 63 1019.0
20240620101507 85 295 1.0 4.0 0.00 0.00 0.00 62 1018.9
20240620100003 85 263 0.0 0.0 0.00 0.00 0.00 59 1018.6
20240620094506 86 199 0.0 0.0 0.00 0.00 0.00 57 1018.5
20240620093003 86 162 0.0 2.0 0.00 0.00 0.00 60 1018.6
20240620091503 84 205 1.0 2.0 0.00 0.00 0.00 61 1018.5
20240620090003 84 233 0.0 2.0 0.00 0.00 0.00 61 1018.5
20240620084511 83 262 0.0 3.0 0.00 0.00 0.00 61 1018.4
20240620083006 82 264 2.0 5.0 0.00 0.00 0.00 62 1018.6
20240620081510 82 227 4.0 8.0 0.00 0.00 0.00 61 1018.8
20240620080004 82 274 4.0 6.0 0.00 0.00 0.00 62 1018.7
20240620075156 82 295 3.0 6.0 0.00 0.00 0.00 65 1018.9
20240620074501 81 246 4.0 6.0 0.00 0.00 0.00 66 1018.9
20240620074137 81 264 3.0 6.0 0.00 0.00 0.00 67 1019.0
20240620073129 82 244 3.0 10.0 0.00 0.00 0.00 65 1019.0
20240620073002 81 251 4.0 10.0 0.00 0.00 0.00 64 1018.9
20240620072131 82 264 5.0 8.0 0.00 0.00 0.00 63 1019.0
20240620071508 81 235 3.0 8.0 0.00 0.00 0.00 67 1018.8
20240620071132 81 272 4.0 8.0 0.00 0.00 0.00 66 1019.0
20240620070203 80 235 4.0 7.0 0.00 0.00 0.00 68 1019.0
20240620070019 80 248 3.0 8.0 0.00 0.00 0.00 69 1018.9
20240620065158 80 225 3.0 6.0 0.00 0.00 0.00 69 1019.1
20240620064505 80 234 4.0 8.0 0.00 0.00 0.00 69 1019.1
20240620064138 80 270 5.0 8.0 0.00 0.00 0.00 68 1019.1
20240620063130 79 248 4.0 7.0 0.00 0.00 0.00 68 1019.2
20240620063006 79 276 4.0 7.0 0.00 0.00 0.00 69 1019.0
20240620062132 79 256 4.0 7.0 0.00 0.00 0.00 70 1019.3
20240620061511 77 238 3.0 7.0 0.00 0.00 0.00 72 1019.2
20240620061135 78 242 4.0 7.0 0.00 0.00 0.00 72 1019.4
20240620060135 76 223 3.0 7.0 0.00 0.00 0.00 74 1019.3
20240620060005 76 250 3.0 6.0 0.00 0.00 0.00 75 1019.1
20240620055136 75 272 3.0 5.0 0.00 0.00 0.00 77 1019.4
20240620054511 74 252 2.0 4.0 0.00 0.00 0.00 77 1019.2
20240620054135 74 238 3.0 4.0 0.00 0.00 0.00 77 1019.4
20240620053142 74 245 2.0 4.0 0.00 0.00 0.00 77 1019.3
20240620053012 73 234 2.0 4.0 0.00 0.00 0.00 77 1019.2
20240620052127 74 238 2.0 4.0 0.00 0.00 0.00 79 1019.5
20240620051512 73 231 3.0 5.0 0.00 0.00 0.00 78 1019.2
20240620051129 73 239 3.0 5.0 0.00 0.00 0.00 79 1019.3
20240620050142 72 262 3.0 6.0 0.00 0.00 0.00 78 1019.3
20240620050019 72 224 4.0 6.0 0.00 0.00 0.00 78 1019.1
20240620045141 72 235 4.0 7.0 0.00 0.00 0.00 78 1019.0
20240620044504 71 231 4.0 7.0 0.00 0.00 0.00 78 1018.8
20240620044131 71 235 5.0 6.0 0.00 0.00 0.00 79 1019.0
20240620043136 70 208 4.0 5.0 0.00 0.00 0.00 80 1018.9
20240620043006 70 226 3.0 4.0 0.00 0.00 0.00 79 1018.7
20240620042138 70 217 3.0 6.0 0.00 0.00 0.00 79 1018.8
20240620041513 69 241 3.0 6.0 0.00 0.00 0.00 79 1018.6
20240620041143 70 243 4.0 5.0 0.00 0.00 0.00 79 1018.9
20240620040132 70 215 3.0 4.0 0.00 0.00 0.00 79 1018.9
20240620040014 69 200 2.0 4.0 0.00 0.00 0.00 78 1018.7
20240620035150 70 207 2.0 3.0 0.00 0.00 0.00 78 1018.7
20240620034511 69 220 2.0 2.0 0.00 0.00 0.00 78 1018.5
20240620034128 69 231 0.0 2.0 0.00 0.00 0.00 79 1018.7
20240620033131 70 191 0.0 2.0 0.00 0.00 0.00 78 1018.6
20240620033010 69 188 0.0 3.0 0.00 0.00 0.00 77 1018.4
20240620032127 70 215 2.0 4.0 0.00 0.00 0.00 77 1018.6
20240620031508 69 200 2.0 4.0 0.00 0.00 0.00 77 1018.5
20240620031140 70 226 2.0 3.0 0.00 0.00 0.00 78 1018.7
20240620030130 70 221 1.0 3.0 0.00 0.00 0.00 77 1018.5
20240620030004 70 209 1.0 4.0 0.00 0.00 0.00 77 1018.2
20240620025131 70 207 2.0 4.0 0.00 0.00 0.00 77 1018.5
20240620024503 70 205 2.0 4.0 0.00 0.00 0.00 77 1018.3
20240620024157 71 216 2.0 4.0 0.00 0.00 0.00 77 1018.5
20240620023136 71 228 2.0 6.0 0.00 0.00 0.00 76 1018.4
20240620023003 71 241 2.0 6.0 0.00 0.00 0.00 75 1018.2
20240620022132 72 222 3.0 4.0 0.00 0.00 0.00 75 1018.4
20240620021503 71 198 1.0 3.0 0.00 0.00 0.00 74 1018.2
20240620021142 72 210 1.0 3.0 0.00 0.00 0.00 75 1018.5
20240620020126 71 219 0.0 0.0 0.00 0.00 0.00 75 1018.5
20240620020003 71 207 0.0 0.0 0.00 0.00 0.00 75 1018.3
20240620015137 71 160 0.0 0.0 0.00 0.00 0.00 77 1018.5
20240620014516 70 232 0.0 2.0 0.00 0.00 0.00 76 1018.2
20240620014133 71 232 0.0 3.0 0.00 0.00 0.00 77 1018.6
20240620013135 71 227 2.0 3.0 0.00 0.00 0.00 78 1018.7
20240620013008 70 240 1.0 4.0 0.00 0.00 0.00 78 1018.5
20240620012136 71 228 3.0 4.0 0.00 0.00 0.00 79 1018.6
20240620011508 70 238 3.0 4.0 0.00 0.00 0.00 77 1018.5
20240620011140 71 238 2.0 3.0 0.00 0.00 0.00 77 1018.7
20240620010132 72 235 1.0 2.0 0.00 0.00 0.00 76 1018.5
20240620010003 71 230 2.0 2.0 0.00 0.00 0.00 75 1018.1
20240620005138 72 213 0.0 3.0 0.00 0.00 0.00 74 1018.1
20240620004511 72 191 1.0 2.0 0.00 0.00 0.00 72 1017.9
20240620004141 72 173 0.0 1.0 0.00 0.00 0.00 73 1018.0
20240620003136 73 150 1.0 2.0 0.00 0.00 0.00 73 1018.0
20240620003008 72 182 1.0 2.0 0.00 0.00 0.00 72 1017.8
20240620002143 72 215 0.0 1.0 0.00 0.00 0.00 74 1018.1
20240620001513 72 203 0.0 2.0 0.00 0.00 0.00 73 1017.9
20240620001142 73 218 1.0 3.0 0.00 0.00 0.00 74 1018.2
20240620000134 73 200 1.0 3.0 0.00 0.00 0.00 74 1018.2
20240620000009 72 191 1.0 3.0 0.00 0.00 0.00 74 1018.0
20240619235136 73 159 1.0 2.0 0.00 0.00 0.00 75 1018.2
20240619234508 72 157 0.0 1.0 0.00 0.00 0.00 73 1018.0
20240619234132 73 157 0.0 1.0 0.00 0.00 0.00 74 1018.2
20240619233149 73 193 0.0 2.0 0.00 0.00 0.00 74 1018.3
20240619233014 73 167 1.0 2.0 0.00 0.00 0.00 73 1018.1
20240619232133 73 194 1.0 4.0 0.00 0.00 0.00 74 1018.4